Weather History for Moultrie, GA

Change the Weather History Date:

Friday, December 28, 2012

  Actual Average (KMUL) Record (KMUL)
Temperature  
Mean Temperature 47 °F -  
Max Temperature 59 °F 63 °F 82 °F (1946)
Min Temperature 35 °F 42 °F 25 °F (1977)
Degree Days  
Heating Degree Days 18    
Moisture  
Dew Point 40 °F    
Average Humidity 78    
Maximum Humidity 100    
Minimum Humidity 51    
Precipitation  
Precipitation 0.00 in - - ()
Sea Level Pressure  
Sea Level Pressure 30.03 in    
Wind  
Wind Speed 1 mph (ESE)    
Max Wind Speed 8 mph    
Max Gust Speed -    
Visibility 8 miles    
Events      
Averages and records for this station are not official NWS values.
T = Trace of Precipitation, MM = Missing Value Source: NWS Daily Summary

Daily Weather History Graph

Daily Weather History Graph

Search for Another Location

Airport:

Trip Planner

Search our weather history database for the weather conditions in past years. The results will help you decide how hot, cold, wet, or windy it might be!

Date:

Astronomy

Dec. 28, 2012 Rise Set
Actual Time 7:32 AM EST 5:41 PM EST
Civil Twilight 7:05 AM EST 6:08 PM EST
Nautical Twilight 6:35 AM EST 6:38 PM EST
Astronomical Twilight 6:06 AM EST 7:08 PM EST
Moon 6:13 PM EST (12/28) 7:29 AM EST (12/28)
Length of Visible Light 11h 02m
Length of Day
10h 08m
Full, 100% of the Moon is Illuminated
Dec 28
Full
Jan 4
Last Quarter
Jan 11
New
Jan 18
First Quarter
Jan 26
Full

Hourly Weather History & Observations

Time (EST) Temp. Windchill Dew Point Humidity Pressure Visibility Wind Dir Wind Speed Gust Speed Precip Events Conditions
12:35 AM 37.4 °F - 35.6 °F 93% 30.09 in 5.0 mi Calm Calm - N/A   Clear
12:55 AM 37.4 °F - 35.6 °F 93% 30.09 in 7.0 mi Calm Calm - N/A   Clear
1:15 AM 35.6 °F - 35.6 °F 100% 30.09 in 7.0 mi Calm Calm - N/A   Clear
1:35 AM 37.4 °F - 35.6 °F 93% 30.10 in 5.0 mi Calm Calm - N/A   Clear
1:55 AM 35.6 °F - 35.6 °F 100% 30.10 in 7.0 mi Calm Calm - N/A   Clear
2:15 AM 35.6 °F - 33.8 °F 93% 30.10 in 5.0 mi Calm Calm - N/A   Clear
2:35 AM 35.6 °F - 35.6 °F 100% 30.11 in 5.0 mi Calm Calm - N/A   Clear
2:55 AM 35.6 °F - 35.6 °F 100% 30.10 in 5.0 mi Calm Calm - N/A   Clear
3:15 AM 35.6 °F - 35.6 °F 100% 30.11 in 4.0 mi Calm Calm - N/A   Clear
3:35 AM 35.6 °F - 33.8 °F 93% 30.11 in 5.0 mi Calm Calm - N/A   Clear
3:55 AM 35.6 °F - 33.8 °F 93% 30.11 in 5.0 mi Calm Calm - N/A   Clear
4:15 AM 35.6 °F - 33.8 °F 93% 30.12 in 7.0 mi Calm Calm - N/A   Clear
4:35 AM 35.6 °F - 33.8 °F 93% 30.11 in 5.0 mi Calm Calm - N/A   Clear
4:55 AM 35.6 °F - 33.8 °F 93% 30.11 in 7.0 mi Calm Calm - N/A   Clear
5:15 AM 35.6 °F - 33.8 °F 93% 30.11 in 5.0 mi Calm Calm - N/A   Clear
5:35 AM 35.6 °F - 33.8 °F 93% 30.10 in 5.0 mi Calm Calm - N/A   Clear
6:35 AM 35.6 °F - 35.6 °F 100% 30.12 in 7.0 mi Calm Calm - N/A   Clear
6:55 AM 35.6 °F - 35.6 °F 100% 30.12 in 7.0 mi Calm Calm - N/A   Clear
7:35 AM 35.6 °F - 35.6 °F 100% 30.12 in 5.0 mi Calm Calm - N/A   Clear
7:55 AM 37.4 °F 34.9 °F 35.6 °F 93% 30.12 in 3.0 mi East 3.5 mph - N/A   Clear
8:15 AM 37.4 °F - 37.4 °F 100% 30.11 in 7.0 mi Calm Calm - N/A   Clear
8:35 AM 37.4 °F - 37.4 °F 100% 30.12 in 7.0 mi Calm Calm - N/A   Clear
8:55 AM 39.2 °F - 37.4 °F 93% 30.12 in 7.0 mi Calm Calm - N/A   Clear
9:15 AM 41.0 °F 38.0 °F 37.4 °F 87% 30.12 in 10.0 mi ESE 4.6 mph - N/A   Clear
9:35 AM 41.0 °F 36.4 °F 37.4 °F 87% 30.10 in 10.0 mi ESE 6.9 mph - N/A   Clear
9:55 AM 42.8 °F - 39.2 °F 87% 30.11 in 10.0 mi Calm Calm - N/A   Clear
10:15 AM 44.6 °F - 41.0 °F 87% 30.12 in 10.0 mi Calm Calm - N/A   Clear
10:35 AM 46.4 °F 43.5 °F 41.0 °F 81% 30.11 in 10.0 mi SE 5.8 mph - N/A   Clear
10:55 AM 46.4 °F 43.5 °F 41.0 °F 81% 30.10 in 10.0 mi SE 5.8 mph - N/A   Clear
11:15 AM 48.2 °F - 41.0 °F 76% 30.08 in 10.0 mi SE 5.8 mph - N/A   Clear
11:35 AM 48.2 °F - 41.0 °F 76% 30.08 in 10.0 mi SE 5.8 mph - N/A   Clear
11:55 AM 50.0 °F - 41.0 °F 71% 30.06 in 10.0 mi SE 4.6 mph - N/A   Clear
12:15 PM 50.0 °F - 41.0 °F 71% 30.05 in 10.0 mi SE 5.8 mph - N/A   Clear
12:35 PM 51.8 °F - 41.0 °F 67% 30.05 in 10.0 mi Calm Calm - N/A   Clear
12:55 PM 51.8 °F - 41.0 °F 67% 30.03 in 10.0 mi ESE 3.5 mph - N/A   Clear
1:15 PM 53.6 °F - 41.0 °F 62% 30.03 in 10.0 mi Calm Calm - N/A   Clear
1:35 PM 55.4 °F - 41.0 °F 58% 30.01 in 10.0 mi Calm Calm - N/A   Clear
1:55 PM 55.4 °F - 41.0 °F 58% 30.01 in 10.0 mi Calm Calm - N/A   Scattered Clouds
2:15 PM 55.4 °F - 41.0 °F 58% 29.98 in 10.0 mi ESE 3.5 mph - N/A   Overcast
2:35 PM 59.0 °F - 41.0 °F 51% 29.99 in 10.0 mi North 3.5 mph - N/A   Mostly Cloudy
2:55 PM 59.0 °F - 41.0 °F 51% 29.99 in 10.0 mi ESE 3.5 mph - N/A   Mostly Cloudy
3:15 PM 59.0 °F - 41.0 °F 51% 29.99 in 10.0 mi ENE 3.5 mph - N/A   Overcast
3:35 PM 59.0 °F - 41.0 °F 51% 29.98 in 10.0 mi Calm Calm - N/A   Overcast
3:55 PM 59.0 °F - 41.0 °F 51% 29.99 in 10.0 mi Calm Calm - N/A   Mostly Cloudy
4:15 PM 59.0 °F - 41.0 °F 51% 29.99 in 10.0 mi East 4.6 mph - N/A   Mostly Cloudy
4:35 PM 57.2 °F - 41.0 °F 55% 29.99 in 10.0 mi East 3.5 mph - N/A   Mostly Cloudy
4:55 PM 57.2 °F - 42.8 °F 59% 30.00 in 10.0 mi Calm Calm - N/A   Overcast
5:35 PM 55.4 °F - 42.8 °F 63% 29.98 in 10.0 mi ENE 3.5 mph - N/A   Scattered Clouds
5:55 PM 53.6 °F - 44.6 °F 72% 29.98 in 10.0 mi Calm Calm - N/A   Mostly Cloudy
6:15 PM 53.6 °F - 44.6 °F 72% 29.97 in 10.0 mi Calm Calm - N/A   Scattered Clouds
6:35 PM 51.8 °F - 44.6 °F 76% 29.98 in 10.0 mi Calm Calm - N/A   Clear
6:55 PM 51.8 °F - 44.6 °F 76% 29.97 in 10.0 mi Calm Calm - N/A   Clear
7:15 PM 51.8 °F - 44.6 °F 76% 29.97 in 10.0 mi Calm Calm - N/A   Mostly Cloudy
7:35 PM 51.8 °F - 44.6 °F 76% 29.97 in 10.0 mi Calm Calm - N/A   Overcast
7:55 PM 53.6 °F - 44.6 °F 72% 29.97 in 10.0 mi Calm Calm - N/A   Overcast
8:15 PM 53.6 °F - 44.6 °F 72% 29.95 in 10.0 mi Calm Calm - N/A   Overcast
8:35 PM 53.6 °F - 44.6 °F 72% 29.94 in 10.0 mi East 3.5 mph - N/A   Mostly Cloudy
8:55 PM 53.6 °F - 44.6 °F 72% 29.93 in 10.0 mi ESE 4.6 mph - N/A   Scattered Clouds
9:15 PM 53.6 °F - 44.6 °F 72% 29.93 in 10.0 mi Calm Calm - N/A   Scattered Clouds
9:35 PM 53.6 °F - 44.6 °F 72% 29.92 in 10.0 mi ESE 3.5 mph - N/A   Clear
9:55 PM 53.6 °F - 44.6 °F 72% 29.91 in 10.0 mi ESE 3.5 mph - N/A   Scattered Clouds
10:15 PM 53.6 °F - 44.6 °F 72% 29.90 in 10.0 mi Calm Calm - N/A   Scattered Clouds
10:35 PM 53.6 °F - 44.6 °F 72% 29.90 in 10.0 mi Calm Calm - N/A   Mostly Cloudy
10:55 PM 53.6 °F - 44.6 °F 72% 29.89 in 10.0 mi ESE 5.8 mph - N/A   Mostly Cloudy
11:15 PM 53.6 °F - 44.6 °F 72% 29.88 in 10.0 mi SE 5.8 mph - N/A   Scattered Clouds
11:35 PM 53.6 °F - 44.6 °F 72% 29.85 in 10.0 mi SE 8.1 mph - N/A   Clear
11:55 PM 55.4 °F - 44.6 °F 67% 29.85 in 10.0 mi SE 6.9 mph - N/A   Scattered Clouds